Regional Weather Roundup
Issued by NWS

Home | Current Version | Previous Version | Graphics & Text | Print | Product List | Glossary On
Versions: 1 2 3 4 5 6 7 8 9 10 11 12 13 14 15 16 17 18 19 20 21 22 23 24 25 26 27 28 29 30 31 32 33 34 35 36 37 38 39 40 41 42 43 44 45 46 47 48 49 50
863
ASUS43 KFSD 290310
RWRSD

WEATHER ROUNDUP FOR SOUTH DAKOTA
NATIONAL WEATHER SERVICE SIOUX FALLS SD
1000 PM CDT SUN MAY 28 2017

NOTE: "FAIR" INDICATES FEW OR NO CLOUDS BELOW 12,000 FEET WITH NO
SIGNIFICANT WEATHER AND/OR OBSTRUCTIONS TO VISIBILITY.


SDZ001>005-009-010-012>017-290400-
NORTHWEST AND NORTH CENTRAL SOUTH DAKOTA

CITY           SKY/WX    TMP DP  RH WIND       PRES   REMARKS
BUFFALO          N/A     58  34  40 N15       29.98R
FAITH            N/A     59  33  37 N13       29.99R
MOBRIDGE       CLEAR     62  33  33 N13       29.90R
$$

SDZ012>016-024>037-041>051-057-063-072>074-290400-
SOUTHWEST AND SOUTH CENTRAL SOUTH DAKOTA

CITY           SKY/WX    TMP DP  RH WIND       PRES   REMARKS
RAPID CTY ARPT CLOUDY    56  42  59 NW9       30.05R
PIERRE         PTCLDY    62  36  37 N10       29.92R
CUSTER         CLOUDY    50  35  56 NW6       30.16R
ELLSWORTH AFB  CLOUDY    55  43  63 W7        30.05R
PHILIP         MOCLDY    60  48  64 W12       29.97R
PINE RIDGE     CLOUDY    51  50  96 SW6       30.08S
SPEARFISH      FAIR      59  39  47 W15G28    30.10R
WINNER         FAIR      60  48  64 W15       29.95R
$$

SDZ004>011-016>023-039-040-290400-
NORTHEAST SOUTH DAKOTA

CITY           SKY/WX    TMP DP  RH WIND       PRES   REMARKS
ABERDEEN       CLEAR     54  41  61 N3        29.88R
WATERTOWN      CLEAR     54  47  77 NW10      29.87R
BROOKINGS      CLOUDY    54  49  83 NW6       29.88R
SISSETON         N/A     55  45  68 NW12      29.83R
$$

SDZ017-020-022-023-036>040-048>070-290400-
SOUTHEAST SOUTH DAKOTA

CITY           SKY/WX    TMP DP  RH WIND       PRES   REMARKS
SIOUX FALLS    CLOUDY    54  49  83 N5        29.88R
HURON          MOCLDY    57  49  74 N6        29.89R
CHAMBERLAIN    PTCLDY    64  46  50 W9        29.91R
MITCHELL       PTCLDY    58  51  78 CALM      29.87F
YANKTON        CLOUDY    62  47  57 N8        29.89R
$$

ABBREVIATIONS USED IN REMARKS
   TC - TEMPERATURE IN CELSIUS
  WCI - WIND CHILL INDEX
   HX - HEAT INDEX
  VSB - VISIBILITY





USA.gov is the U.S. government's official web portal to all federal, state and local government web resources and services.